Time,TemperatureF,DewpointF,PressureIn,WindDirection,WindDirectionDegrees,WindSpeedMPH,WindSpeedGustMPH,Humidity,HourlyPrecipIn,Conditions,Clouds,dailyrainin,SolarRadiationWatts/m^2,SoftwareType,DateUTC
2013-05-16 00:00:00,67.7,63.4,30.05,East,84,7.0,17.0,86,0.00,FEW,SCT,0.00,0.0,WeatherDisplay:10.37,2013-05-16 10:00:00,
2013-05-16 00:10:00,67.5,62.8,30.05,East,80,8.0,17.0,85,0.00,CLR,SCT,0.00,0.0,WeatherDisplay:10.37,2013-05-16 10:10:00,
2013-05-16 00:20:00,67.4,62.7,30.05,East,83,9.0,15.0,85,0.00,CLR,SCT,0.00,0.0,WeatherDisplay:10.37,2013-05-16 10:20:00,
2013-05-16 00:30:00,67.4,62.1,30.04,East,85,6.0,18.0,83,0.00,CLR,SCT,0.00,0.0,WeatherDisplay:10.37,2013-05-16 10:30:00,
2013-05-16 00:40:00,67.3,61.6,30.04,ENE,78,6.0,14.0,82,0.00,CLR,SCT,0.00,0.0,WeatherDisplay:10.37,2013-05-16 10:40:00,
2013-05-16 00:50:00,67.3,61.3,30.04,ENE,77,13.0,18.0,81,0.00,CLR,SCT,0.00,0.0,WeatherDisplay:10.37,2013-05-16 10:50:00,
2013-05-16 01:00:00,67.5,61.8,30.04,East,88,6.0,21.0,82,0.00,CLR,SCT,0.00,0.0,WeatherDisplay:10.37,2013-05-16 11:00:00,
2013-05-16 01:10:00,67.4,62.1,30.03,ENE,71,6.0,14.0,83,0.00,CLR,SCT,0.00,0.0,WeatherDisplay:10.37,2013-05-16 11:10:00,
2013-05-16 01:20:00,67.2,61.9,30.03,ENE,72,10.0,17.0,83,0.00,CLR,SCT,0.00,0.0,WeatherDisplay:10.37,2013-05-16 11:20:00,
2013-05-16 01:30:00,67.2,61.5,30.02,East,80,7.0,15.0,82,0.00,CLR,SCT,0.00,0.0,WeatherDisplay:10.37,2013-05-16 11:30:00,
2013-05-16 01:40:00,67.3,60.9,30.02,East,89,8.0,17.0,80,0.00,CLR,SCT,0.00,0.0,WeatherDisplay:10.37,2013-05-16 11:40:00,
2013-05-16 01:50:00,67.4,60.3,30.02,East,85,7.0,15.0,78,0.00,CLR,SCT,0.00,0.0,WeatherDisplay:10.37,2013-05-16 11:50:00,
2013-05-16 02:00:00,67.4,59.9,30.01,East,81,7.0,13.0,77,0.00,CLR,SCT,0.00,0.0,WeatherDisplay:10.37,2013-05-16 12:00:00,
2013-05-16 02:10:00,67.1,59.7,30.01,ENE,69,5.0,10.0,77,0.00,CLR,SCT,0.00,0.0,WeatherDisplay:10.37,2013-05-16 12:10:00,
2013-05-16 02:20:00,67.0,58.8,30.01,East,83,6.0,10.0,75,0.00,CLR,SCT,0.00,0.0,WeatherDisplay:10.37,2013-05-16 12:20:00,
2013-05-16 02:30:00,67.0,59.5,30.00,ENE,70,6.0,15.0,77,0.00,CLR,SCT,0.00,0.0,WeatherDisplay:10.37,2013-05-16 12:30:00,
2013-05-16 02:40:00,67.0,61.0,30.00,ENE,76,9.0,15.0,81,0.00,CLR,SCT,0.00,0.0,WeatherDisplay:10.37,2013-05-16 12:40:00,
2013-05-16 02:50:00,66.9,60.9,30.00,ENE,76,8.0,17.0,81,0.00,CLR,SCT,0.00,0.0,WeatherDisplay:10.37,2013-05-16 12:50:00,
2013-05-16 03:00:00,66.7,60.7,29.99,ENE,65,12.0,16.0,81,0.00,CLR,SCT,0.00,0.0,WeatherDisplay:10.37,2013-05-16 13:00:00,
2013-05-16 03:10:00,66.6,60.6,29.99,ENE,68,10.0,17.0,81,0.00,CLR,SCT,0.00,0.0,WeatherDisplay:10.37,2013-05-16 13:10:00,
2013-05-16 03:20:00,67.1,60.3,29.99,East,95,9.0,15.0,79,0.00,CLR,SCT,0.00,0.0,WeatherDisplay:10.37,2013-05-16 13:20:00,
2013-05-16 03:30:00,67.1,60.7,29.99,East,82,6.0,15.0,80,0.00,CLR,SCT,0.00,0.0,WeatherDisplay:10.37,2013-05-16 13:30:00,
2013-05-16 03:40:00,67.0,61.7,29.99,East,80,5.0,13.0,83,0.00,CLR,SCT,0.00,0.0,WeatherDisplay:10.37,2013-05-16 13:40:00,
2013-05-16 03:50:00,66.9,61.9,29.99,ENE,64,6.0,14.0,84,0.00,CLR,SCT,0.00,0.0,WeatherDisplay:10.37,2013-05-16 13:50:00,
2013-05-16 04:00:00,66.8,61.5,29.99,ENE,76,12.0,20.0,83,0.00,CLR,SCT,0.00,0.0,WeatherDisplay:10.37,2013-05-16 14:00:00,
2013-05-16 04:10:00,66.8,61.5,29.99,ENE,78,8.0,23.0,83,0.00,CLR,SCT,0.00,0.0,WeatherDisplay:10.37,2013-05-16 14:10:00,
2013-05-16 04:20:00,66.8,61.2,29.99,East,85,3.0,20.0,82,0.00,CLR,SCT,0.00,0.0,WeatherDisplay:10.37,2013-05-16 14:20:00,
2013-05-16 04:30:00,66.7,62.1,29.99,ENE,77,9.0,15.0,85,0.00,CLR,SCT,0.00,0.0,WeatherDisplay:10.37,2013-05-16 14:30:00,
2013-05-16 04:40:00,66.7,62.4,29.99,ENE,70,7.0,21.0,86,0.00,CLR,SCT,0.00,0.0,WeatherDisplay:10.37,2013-05-16 14:40:00,
2013-05-16 04:50:00,66.6,61.9,29.99,East,79,8.0,18.0,85,0.00,CLR,SCT,0.00,0.0,WeatherDisplay:10.37,2013-05-16 14:50:00,
2013-05-16 05:00:00,66.5,61.2,29.99,East,92,13.0,20.0,83,0.00,CLR,SCT,0.00,0.0,WeatherDisplay:10.37,2013-05-16 15:00:00,
2013-05-16 05:10:00,66.5,61.5,30.00,East,82,9.0,15.0,84,0.00,CLR,SCT,0.00,0.0,WeatherDisplay:10.37,2013-05-16 15:10:00,
2013-05-16 05:20:00,66.3,61.3,30.00,East,90,8.0,15.0,84,0.00,CLR,SCT,0.00,0.0,WeatherDisplay:10.37,2013-05-16 15:20:00,
2013-05-16 05:30:00,66.3,61.3,30.00,East,99,8.0,8.0,84,0.00,CLR,SCT,0.00,0.0,WeatherDisplay:10.37,2013-05-16 15:30:00,
2013-05-16 05:40:00,66.3,61.3,30.00,East,99,8.0,8.0,84,0.00,CLR,SCT,0.00,0.0,WeatherDisplay:10.37,2013-05-16 15:40:00,
2013-05-16 05:50:00,66.3,61.3,30.00,East,99,8.0,8.0,84,0.00,CLR,SCT,0.00,0.0,WeatherDisplay:10.37,2013-05-16 15:50:00,
2013-05-16 06:00:00,66.3,61.3,30.00,East,99,8.0,8.0,84,0.00,CLR,SCT,0.00,0.2,WeatherDisplay:10.37,2013-05-16 16:00:00,
2013-05-16 06:10:00,66.1,59.7,30.01,East,98,7.0,13.0,80,0.00,CLR,SCT,0.00,0.5,WeatherDisplay:10.37,2013-05-16 16:10:00,
2013-05-16 06:20:00,66.4,60.0,30.01,East,83,6.0,13.0,80,0.00,CLR,SCT,0.00,2.3,WeatherDisplay:10.37,2013-05-16 16:20:00,
2013-05-16 06:30:00,66.5,61.2,30.02,East,81,9.0,14.0,83,0.00,CLR,SCT,0.00,2.3,WeatherDisplay:10.37,2013-05-16 16:30:00,
2013-05-16 06:40:00,66.6,61.3,30.02,East,84,8.0,12.0,83,0.00,CLR,SCT,0.00,3.3,WeatherDisplay:10.37,2013-05-16 16:40:00,
2013-05-16 06:50:00,66.8,61.1,30.02,East,82,8.0,17.0,82,0.00,CLR,SCT,0.00,5.8,WeatherDisplay:10.37,2013-05-16 16:50:00,
2013-05-16 07:00:00,67.0,62.0,30.02,ENE,78,6.0,13.0,84,0.00,CLR,SCT,0.00,6.9,WeatherDisplay:10.37,2013-05-16 17:00:00,
2013-05-16 07:10:00,67.1,61.4,30.02,East,85,7.0,14.0,82,0.00,FEW,SCT,0.00,19.3,WeatherDisplay:10.37,2013-05-16 17:10:00,
2013-05-16 07:20:00,67.4,62.1,30.02,ENE,73,7.0,17.0,83,0.00,FEW,SCT,0.00,11.8,WeatherDisplay:10.37,2013-05-16 17:20:00,
2013-05-16 07:30:00,67.7,63.0,30.02,ENE,68,12.0,18.0,85,0.00,FEW,SCT,0.00,63.1,WeatherDisplay:10.37,2013-05-16 17:30:00,
2013-05-16 07:40:00,68.0,63.3,30.03,East,85,10.0,18.0,85,0.00,FEW,SCT,0.00,26.6,WeatherDisplay:10.37,2013-05-16 17:40:00,
2013-05-16 07:50:00,68.3,62.9,30.03,ENE,68,10.0,20.0,83,0.00,FEW,SCT,0.00,33.0,WeatherDisplay:10.37,2013-05-16 17:50:00,
2013-05-16 08:00:00,68.4,64.0,30.03,ENE,61,9.0,16.0,86,0.00,FEW,SCT,0.00,114.5,WeatherDisplay:10.37,2013-05-16 18:00:00,
2013-05-16 08:10:00,68.3,63.9,30.03,ENE,74,7.0,16.0,86,0.00,FEW,SCT,0.00,37.5,WeatherDisplay:10.37,2013-05-16 18:10:00,
2013-05-16 08:20:00,68.4,64.4,30.03,ENE,77,6.0,14.0,87,0.01,RA,SCT,0.01,57.8,WeatherDisplay:10.37,2013-05-16 18:20:00,
2013-05-16 08:30:00,68.2,64.2,30.03,East,85,13.0,18.0,87,0.00,FEW,SCT,0.01,249.0,WeatherDisplay:10.37,2013-05-16 18:30:00,
2013-05-16 08:40:00,69.7,64.7,30.02,East,93,8.0,20.0,84,0.00,FEW,SCT,0.01,243.9,WeatherDisplay:10.37,2013-05-16 18:40:00,
2013-05-16 08:50:00,71.1,64.7,30.03,East,81,13.0,23.0,80,0.00,FEW,SCT,0.01,264.3,WeatherDisplay:10.37,2013-05-16 18:50:00,
2013-05-16 09:00:00,71.7,64.5,30.03,East,83,12.0,17.0,78,0.00,FEW,SCT,0.01,91.6,WeatherDisplay:10.37,2013-05-16 19:00:00,
2013-05-16 09:10:00,72.4,65.1,30.03,East,90,9.0,24.0,78,0.00,SCT,SCT,0.01,323.5,WeatherDisplay:10.37,2013-05-16 19:10:00,
2013-05-16 09:20:00,73.1,65.1,30.03,ENE,70,10.0,17.0,76,0.00,SCT,SCT,0.01,111.1,WeatherDisplay:10.37,2013-05-16 19:20:00,
2013-05-16 09:30:00,71.3,65.2,30.03,ENE,74,8.0,18.0,81,0.00,SCT,SCT,0.01,201.6,WeatherDisplay:10.37,2013-05-16 19:30:00,
2013-05-16 09:40:00,70.5,64.3,30.03,East,81,13.0,20.0,81,0.00,SCT,SCT,0.01,206.1,WeatherDisplay:10.37,2013-05-16 19:40:00,
2013-05-16 09:50:00,69.7,65.0,30.03,ENE,66,12.0,23.0,85,0.00,SCT,SCT,0.02,203.7,WeatherDisplay:10.37,2013-05-16 19:50:00,
2013-05-16 10:00:00,70.5,65.1,30.03,ENE,70,10.0,23.0,83,0.01,RA,SCT,0.02,466.2,WeatherDisplay:10.37,2013-05-16 20:00:00,
2013-05-16 10:10:00,72.7,65.8,30.03,East,81,12.0,21.0,79,0.00,SCT,SCT,0.02,382.0,WeatherDisplay:10.37,2013-05-16 20:10:00,
2013-05-16 10:20:00,74.4,65.5,30.03,ENE,76,10.0,16.0,74,0.00,SCT,SCT,0.02,489.3,WeatherDisplay:10.37,2013-05-16 20:20:00,
2013-05-16 10:30:00,74.9,65.2,30.02,ENE,71,10.0,23.0,72,0.00,SCT,SCT,0.02,223.7,WeatherDisplay:10.37,2013-05-16 20:30:00,
2013-05-16 10:40:00,75.3,65.6,30.02,ENE,70,10.0,26.0,72,0.00,SCT,SCT,0.02,541.1,WeatherDisplay:10.37,2013-05-16 20:40:00,
2013-05-16 10:50:00,75.6,66.7,30.02,ENE,68,8.0,23.0,74,0.00,SCT,SCT,0.02,536.7,WeatherDisplay:10.37,2013-05-16 20:50:00,
2013-05-16 11:00:00,76.0,66.7,30.01,ENE,74,12.0,20.0,73,0.00,SCT,SCT,0.02,557.4,WeatherDisplay:10.37,2013-05-16 21:00:00,
2013-05-16 11:10:00,76.9,66.3,30.02,East,100,8.0,20.0,70,0.00,SCT,SCT,0.02,566.1,WeatherDisplay:10.37,2013-05-16 21:10:00,
2013-05-16 11:20:00,77.5,66.9,30.01,East,97,6.0,14.0,70,0.00,SCT,SCT,0.02,580.6,WeatherDisplay:10.37,2013-05-16 21:20:00,
2013-05-16 11:30:00,77.1,64.4,30.01,East,93,10.0,20.0,65,0.00,SCT,SCT,0.02,597.4,WeatherDisplay:10.37,2013-05-16 21:30:00,
2013-05-16 11:40:00,77.9,65.7,30.01,ESE,103,8.0,20.0,66,0.00,SCT,SCT,0.02,588.1,WeatherDisplay:10.37,2013-05-16 21:40:00,
2013-05-16 11:50:00,78.5,66.2,30.00,East,88,10.0,22.0,66,0.00,SCT,SCT,0.02,609.1,WeatherDisplay:10.37,2013-05-16 21:50:00,
2013-05-16 12:00:00,78.7,67.2,30.00,ENE,65,8.0,22.0,68,0.00,SCT,SCT,0.02,346.0,WeatherDisplay:10.37,2013-05-16 22:00:00,
2013-05-16 12:10:00,78.5,66.2,30.00,East,82,12.0,22.0,66,0.00,SCT,SCT,0.02,605.0,WeatherDisplay:10.37,2013-05-16 22:10:00,
2013-05-16 12:20:00,78.5,66.2,30.00,East,84,12.0,12.0,66,0.00,SCT,SCT,0.02,622.2,WeatherDisplay:10.37,2013-05-16 22:20:00,
2013-05-16 12:30:00,78.5,66.2,30.00,East,84,12.0,12.0,66,0.00,SCT,SCT,0.02,801.5,WeatherDisplay:10.37,2013-05-16 22:30:00,
2013-05-16 12:40:00,78.5,66.2,30.00,East,84,12.0,12.0,66,0.00,SCT,SCT,0.02,477.3,WeatherDisplay:10.37,2013-05-16 22:40:00,
2013-05-16 12:50:00,78.5,66.2,30.00,East,84,12.0,12.0,66,0.00,SCT,SCT,0.02,741.7,WeatherDisplay:10.37,2013-05-16 22:50:00,
2013-05-16 13:00:00,78.5,66.2,30.00,East,84,12.0,12.0,66,0.00,SCT,SCT,0.02,712.9,WeatherDisplay:10.37,2013-05-16 23:00:00,
2013-05-16 13:10:00,78.5,66.2,30.00,East,84,12.0,12.0,66,0.00,SCT,SCT,0.02,389.9,WeatherDisplay:10.37,2013-05-16 23:10:00,
2013-05-16 13:20:00,78.5,66.2,30.00,East,84,12.0,12.0,66,0.00,SCT,SCT,0.02,350.4,WeatherDisplay:10.37,2013-05-16 23:20:00,
2013-05-16 13:30:00,78.5,66.2,30.00,East,84,12.0,12.0,66,0.00,SCT,SCT,0.02,792.1,WeatherDisplay:10.37,2013-05-16 23:30:00,
2013-05-16 13:40:00,78.5,66.2,30.00,East,84,12.0,12.0,66,0.00,SCT,SCT,0.02,267.2,WeatherDisplay:10.37,2013-05-16 23:40:00,
2013-05-16 13:50:00,78.5,66.2,30.00,East,84,12.0,12.0,66,0.00,SCT,SCT,0.02,263.5,WeatherDisplay:10.37,2013-05-16 23:50:00,
2013-05-16 14:00:00,78.5,66.2,30.00,East,84,12.0,12.0,66,0.00,SCT,SCT,0.02,564.9,WeatherDisplay:10.37,2013-05-17 00:00:00,
2013-05-16 14:10:00,78.5,66.2,30.00,East,84,12.0,12.0,66,0.00,SCT,SCT,0.02,622.6,WeatherDisplay:10.37,2013-05-17 00:10:00,
2013-05-16 14:20:00,78.5,66.2,30.00,East,84,12.0,12.0,66,0.00,SCT,SCT,0.02,523.3,WeatherDisplay:10.37,2013-05-17 00:20:00,
2013-05-16 14:30:00,78.5,66.2,30.00,East,84,12.0,12.0,66,0.00,SCT,SCT,0.02,254.8,WeatherDisplay:10.37,2013-05-17 00:30:00,
2013-05-16 14:40:00,78.5,66.2,30.00,East,84,12.0,12.0,66,0.00,SCT,SCT,0.02,443.4,WeatherDisplay:10.37,2013-05-17 00:40:00,
2013-05-16 14:50:00,78.5,66.2,30.00,East,84,12.0,12.0,66,0.00,SCT,SCT,0.02,482.2,WeatherDisplay:10.37,2013-05-17 00:50:00,
2013-05-16 15:00:00,78.5,66.2,30.00,East,86,12.0,12.0,66,0.00,SCT,SCT,0.03,198.1,WeatherDisplay:10.37,2013-05-17 01:00:00,
2013-05-16 15:10:00,75.6,65.6,29.95,East,85,7.0,18.0,71,0.01,RA,SCT,0.03,169.9,WeatherDisplay:10.37,2013-05-17 01:10:00,
2013-05-16 15:20:00,74.0,65.6,29.95,East,82,12.0,20.0,75,0.00,SCT,SCT,0.03,147.4,WeatherDisplay:10.37,2013-05-17 01:20:00,
2013-05-16 15:30:00,73.9,65.5,29.95,East,79,6.0,20.0,75,0.00,SCT,SCT,0.03,129.6,WeatherDisplay:10.37,2013-05-17 01:30:00,
2013-05-16 15:40:00,74.3,65.0,29.95,East,84,9.0,16.0,73,0.00,SCT,SCT,0.03,124.6,WeatherDisplay:10.37,2013-05-17 01:40:00,
2013-05-16 15:50:00,74.4,66.3,29.96,East,86,9.0,16.0,76,0.00,SCT,SCT,0.03,117.3,WeatherDisplay:10.37,2013-05-17 01:50:00,
2013-05-16 16:00:00,75.4,65.7,29.95,East,92,7.0,17.0,72,0.00,SCT,SCT,0.03,186.3,WeatherDisplay:10.37,2013-05-17 02:00:00,
2013-05-16 16:10:00,75.5,65.4,29.96,East,79,12.0,20.0,71,0.00,SCT,SCT,0.03,73.9,WeatherDisplay:10.37,2013-05-17 02:10:00,
2013-05-16 16:20:00,74.5,64.9,29.96,East,92,9.0,21.0,72,0.00,SCT,SCT,0.03,77.6,WeatherDisplay:10.37,2013-05-17 02:20:00,
2013-05-16 16:30:00,74.7,66.2,29.96,East,89,12.0,18.0,75,0.00,SCT,SCT,0.03,225.5,WeatherDisplay:10.37,2013-05-17 02:30:00,
2013-05-16 16:40:00,74.0,65.2,29.97,East,94,12.0,16.0,74,0.00,SCT,SCT,0.03,65.5,WeatherDisplay:10.37,2013-05-17 02:40:00,
2013-05-16 16:50:00,72.6,66.4,29.97,East,86,7.0,18.0,81,0.00,SCT,SCT,0.03,47.5,WeatherDisplay:10.37,2013-05-17 02:50:00,
2013-05-16 17:00:00,70.8,64.3,29.96,ENE,78,13.0,20.0,80,0.00,SCT,SCT,0.03,33.5,WeatherDisplay:10.37,2013-05-17 03:00:00,
2013-05-16 17:10:00,70.6,63.4,29.97,East,84,12.0,26.0,78,0.00,SCT,SCT,0.03,115.3,WeatherDisplay:10.37,2013-05-17 03:10:00,
2013-05-16 17:20:00,71.3,63.3,29.97,East,88,8.0,18.0,76,0.00,SCT,SCT,0.03,30.8,WeatherDisplay:10.37,2013-05-17 03:20:00,
2013-05-16 17:30:00,70.9,62.6,29.97,East,100,13.0,23.0,75,0.00,SCT,SCT,0.03,22.9,WeatherDisplay:10.37,2013-05-17 03:30:00,
2013-05-16 17:40:00,70.4,62.5,29.97,East,88,9.0,23.0,76,0.00,SCT,SCT,0.03,15.9,WeatherDisplay:10.37,2013-05-17 03:40:00,
2013-05-16 17:50:00,70.1,62.6,29.97,East,99,13.0,25.0,77,0.00,SCT,SCT,0.03,12.1,WeatherDisplay:10.37,2013-05-17 03:50:00,
2013-05-16 18:00:00,69.9,62.7,29.97,ESE,104,12.0,18.0,78,0.00,SCT,SCT,0.03,6.8,WeatherDisplay:10.37,2013-05-17 04:00:00,
2013-05-16 18:10:00,69.3,62.5,29.97,East,92,12.0,27.0,79,0.00,SCT,SCT,0.03,7.9,WeatherDisplay:10.37,2013-05-17 04:10:00,
2013-05-16 18:20:00,69.0,62.2,29.98,ESE,110,8.0,17.0,79,0.00,SCT,SCT,0.03,15.0,WeatherDisplay:10.37,2013-05-17 04:20:00,
2013-05-16 18:30:00,69.2,62.0,29.98,ESE,113,8.0,15.0,78,0.00,SCT,SCT,0.03,2.2,WeatherDisplay:10.37,2013-05-17 04:30:00,
2013-05-16 18:40:00,69.5,60.8,29.98,East,101,8.0,20.0,74,0.00,SCT,SCT,0.03,0.7,WeatherDisplay:10.37,2013-05-17 04:40:00,
2013-05-16 18:50:00,69.8,61.9,29.99,East,99,10.0,20.0,76,0.00,SCT,SCT,0.03,0.1,WeatherDisplay:10.37,2013-05-17 04:50:00,
2013-05-16 19:00:00,69.4,60.4,29.99,East,91,12.0,18.0,73,0.00,SCT,SCT,0.03,0.0,WeatherDisplay:10.37,2013-05-17 05:00:00,
2013-05-16 19:10:00,69.0,61.1,29.99,East,94,10.0,18.0,76,0.00,SCT,SCT,0.03,0.0,WeatherDisplay:10.37,2013-05-17 05:10:00,
2013-05-16 19:20:00,69.1,60.9,29.99,East,79,8.0,12.0,75,0.00,SCT,SCT,0.03,0.0,WeatherDisplay:10.37,2013-05-17 05:20:00,
2013-05-16 19:30:00,69.4,61.5,30.00,East,89,3.0,15.0,76,0.00,SCT,SCT,0.03,0.0,WeatherDisplay:10.37,2013-05-17 05:30:00,
2013-05-16 19:40:00,69.4,61.1,30.00,East,95,9.0,15.0,75,0.00,SCT,SCT,0.03,0.0,WeatherDisplay:10.37,2013-05-17 05:40:00,
2013-05-16 19:50:00,69.1,62.6,30.00,East,85,7.0,13.0,80,0.00,SCT,SCT,0.03,0.0,WeatherDisplay:10.37,2013-05-17 05:50:00,
2013-05-16 20:00:00,68.8,61.7,30.01,East,93,8.0,20.0,78,0.00,SCT,SCT,0.03,0.0,WeatherDisplay:10.37,2013-05-17 06:00:00,
2013-05-16 20:10:00,68.7,61.9,30.01,ENE,78,8.0,18.0,79,0.00,SCT,SCT,0.03,0.0,WeatherDisplay:10.37,2013-05-17 06:10:00,
2013-05-16 20:20:00,68.3,61.2,30.01,East,82,8.0,15.0,78,0.00,SCT,SCT,0.03,0.0,WeatherDisplay:10.37,2013-05-17 06:20:00,
2013-05-16 20:30:00,68.4,61.3,30.01,ENE,68,8.0,15.0,78,0.00,SCT,SCT,0.03,0.0,WeatherDisplay:10.37,2013-05-17 06:30:00,
2013-05-16 20:40:00,68.3,61.2,30.01,East,80,13.0,16.0,78,0.00,SCT,SCT,0.03,0.0,WeatherDisplay:10.37,2013-05-17 06:40:00,
2013-05-16 20:50:00,68.6,60.7,30.02,East,92,3.0,15.0,76,0.00,SCT,SCT,0.03,0.0,WeatherDisplay:10.37,2013-05-17 06:50:00,
2013-05-16 21:00:00,68.7,60.9,30.02,East,84,7.0,14.0,76,0.00,SCT,SCT,0.03,0.0,WeatherDisplay:10.37,2013-05-17 07:00:00,
2013-05-16 21:10:00,68.5,59.5,30.02,East,85,10.0,21.0,73,0.00,BKN,SCT,0.03,0.0,WeatherDisplay:10.37,2013-05-17 07:10:00,
2013-05-16 21:20:00,68.7,58.9,30.02,East,86,8.0,16.0,71,0.00,BKN,SCT,0.03,0.0,WeatherDisplay:10.37,2013-05-17 07:20:00,
2013-05-16 21:30:00,68.6,59.6,30.02,East,82,9.0,18.0,73,0.00,BKN,SCT,0.03,0.0,WeatherDisplay:10.37,2013-05-17 07:30:00,
2013-05-16 21:40:00,68.2,60.7,30.03,East,99,10.0,15.0,77,0.00,BKN,SCT,0.03,0.0,WeatherDisplay:10.37,2013-05-17 07:40:00,
2013-05-16 21:50:00,68.2,60.0,30.02,East,96,8.0,21.0,75,0.00,BKN,SCT,0.03,0.0,WeatherDisplay:10.37,2013-05-17 07:50:00,
2013-05-16 22:00:00,68.3,59.7,30.03,East,85,9.0,16.0,74,0.00,BKN,SCT,0.03,0.0,WeatherDisplay:10.37,2013-05-17 08:00:00,
2013-05-16 22:10:00,68.6,60.0,30.03,East,80,9.0,18.0,74,0.00,SCT,SCT,0.03,0.0,WeatherDisplay:10.37,2013-05-17 08:10:00,
2013-05-16 22:20:00,68.5,59.1,30.03,East,89,8.0,17.0,72,0.00,SCT,SCT,0.03,0.0,WeatherDisplay:10.37,2013-05-17 08:20:00,
2013-05-16 22:30:00,68.5,59.5,30.03,East,93,9.0,20.0,73,0.00,SCT,SCT,0.03,0.0,WeatherDisplay:10.37,2013-05-17 08:30:00,
2013-05-16 22:40:00,68.3,60.5,30.03,ENE,77,13.0,20.0,76,0.00,SCT,SCT,0.03,0.0,WeatherDisplay:10.37,2013-05-17 08:40:00,
2013-05-16 22:50:00,68.2,61.4,30.03,East,81,12.0,20.0,79,0.00,SCT,SCT,0.03,0.0,WeatherDisplay:10.37,2013-05-17 08:50:00,
2013-05-16 23:00:00,67.8,61.4,30.03,ENE,76,10.0,20.0,80,0.00,SCT,SCT,0.03,0.0,WeatherDisplay:10.37,2013-05-17 09:00:00,
2013-05-16 23:10:00,67.6,61.6,30.03,East,83,8.0,16.0,81,0.00,SCT,SCT,0.03,0.0,WeatherDisplay:10.37,2013-05-17 09:10:00,
2013-05-16 23:20:00,67.6,60.9,30.02,East,80,8.0,17.0,79,0.00,SCT,SCT,0.03,0.0,WeatherDisplay:10.37,2013-05-17 09:20:00,
2013-05-16 23:30:00,67.6,61.6,30.02,ENE,74,9.0,18.0,81,0.00,SCT,SCT,0.03,0.0,WeatherDisplay:10.37,2013-05-17 09:30:00,
2013-05-16 23:40:00,67.5,60.8,30.02,East,79,8.0,21.0,79,0.00,SCT,SCT,0.03,0.0,WeatherDisplay:10.37,2013-05-17 09:40:00,
2013-05-16 23:50:00,67.5,60.0,30.02,ESE,103,9.0,20.0,77,0.00,SCT,SCT,0.03,0.0,WeatherDisplay:10.37,2013-05-17 09:50:00,